Location: Moscow
(30.9132°N, 94.8252°W)
Time: 05:59:43
(UTC+00:00)

AQUARIUS - Pass Details

Date: 15 November 2025
Orbit: 634 x 636 km, 98.0° (Epoch: 04 December)

Event Time Altitude Azimuth Distance (km) Brightness Sun altitude
Rises 00:15:49 0° 167° (SSE) 2,918 7.5 -11.9°
Reaches altitude 10° 00:18:00 10° 167° (SSE) 2,013 6.7 -12.3°
Maximum altitude 00:22:23 89° 253° (WSW) 640 4.1 -13.2°
Drops below altitude 10° 00:26:49 10° 348° (NNW) 2,023 6.7 -14.1°
Sets 00:29:01 0° 348° (NNW) 2,934 7.5 -14.6°
